Torna al catalogo

ONEWEB-0027

AttivoComunicazioniPO
NORAD 45432·PAYLOAD·🇬🇧 United Kingdom

Lanciato Mar 21, 2020 da Baikonur Cosmodrome

Loading…

Prossimi Passaggi (prossime 24 ore)

TLE

AggiornatoSource: CelesTrak SupGP

Epoca: Sep 14, 2026, 10:05 UTC

1 45432C 20020J   26257.42028194 -.00002518  00000+0 -64938-2 0  2570
2 45432  87.9205 348.1459 0001487 103.3899 305.1562 13.17648428    15

Traccia ONEWEB-0027 in tempo reale con AllMySat

Download on the App Store